User: anonymous   Login
Location: Fort Wayne
(41.1310°N, 85.1290°W)
Time: 18:00:11
(UTC-05:00)
Language:

COSMOS 2406 - Orbit

View from above orbital plane
View from above orbital plane
View from above satellite
View from above satellite

Ground track
Ground track

The orbit data is extracted from the following two-line orbital elements,

1 28352U 04021A   15027.57662258  .00000281  00000-0  18087-3 0  4963
2 28352 071.0030 144.2236 0016337 329.8100 112.9402 14.11376433547860
Epoch (UTC): 27 January 2015 13:50:20
Eccentricity: 0.0016337
inclination: 71.0030°
perigee height: 843 km
apogee height: 866 km
right ascension of ascending node: 144.2236°
argument of perigee: 329.8100°
revolutions per day: 14.11376433
mean anomaly at epoch: 112.9402°
orbit number at epoch: 54786

The dashed part of the orbit path shows where the satellite is in the earth's shadow,  

DLR